Airfield :
LOGIN :

Register | Disclaimer

   EN    FR    IT 

 










Legend :    VFR   Marginal VFR   IFR   Intensive IFR   Very Intensive IFR
Visi :
Ceiling :
>= 8 km
>= 3000ft
5 to 8 km
1000 to 3000 ft
1500m to 5 km
500 to 1000 ft
800 to 1500m
200 to 500 ft
< 800m
< 200 ft
Symbols :   Thunderstorms  Fog  Heavy snow  Heavy precipitations  Wind > 20 kt
SIGMETs :     Misc.  Thunderstorms  Icing  Turbulence  Mountain Waves  Volcanic Ashes







- Airport Elevation : 49 ft
- IATA code : GLZ


EHGR - Gilze-Rijen Airbase

CURRENT METAR :
  • 211825Z AUTO 32005KT 260V340 9999 OVC360 21/12 Q1022 BLU

EXPIRED METARs :
  • 211755Z AUTO 31005KT 250V330 9999 NCD 22/12 Q1022 BLU
  • 211725Z AUTO 32005KT 260V030 9999 BKN320 23/12 Q1022 BLU
  • 211655Z AUTO 31007KT 220V350 9999 SCT300 OVC370 23/12 Q1022 BLU
  • 211625Z AUTO 31007KT 260V340 9999 SCT240 BKN300 23/12 Q1022 BLU
  • 211555Z AUTO 29008KT 260V020 9999 OVC220 23/12 Q1022 BLU

Expired Forecast.
No reported NOTAMs for that airfield.



MET'MAP, your aeronautical weather chart ! - Copyright ORBIFLY December 2007 - Disclaimer

ORBIFLY MET'MAP TEAM :

Programming & Development : Alexandra Zaïnal
Concept & Development : Baudouin d'Aumeries
Co-Development & Prog : Marc-Olivier Méhu
Technical & hardware support : Manuel Goepfert

Contact : metmap@orbifly.com




SOURCES & CREDITS :

   NOAA